Regional Weather Roundup
Issued by NWS

Home | Current Version | Previous Version | Text Only | Print | Product List | Glossary On
Versions: 1 2 3 4 5 6 7 8 9 10 11 12 13 14 15 16 17 18 19 20 21 22 23 24 25 26 27 28 29 30 31 32 33 34 35 36 37 38 39 40 41 42 43 44 45 46 47 48 49 50
301
ASUS44 KJAN 261810
RWRMS

MISSISSIPPI HOURLY WEATHER ROUNDUP
NATIONAL WEATHER SERVICE JACKSON MS
100 PM CDT THU MAR 26 2015

NOTE: "FAIR: INDICATES FEW OR NO CLOUDS BELOW 12,000 FEET WITH NO
SIGNIFICANT WEATHER AND/OR OBSTRUCTIONS TO VISIBILITY.

MSZ001>002-007>008-010>013-018>021-025>028-034>036-261900-
NORTHWEST MISSISSIPPI

CITY           SKY/WX    TMP DP  RH WIND       PRES   REMARKS
CLARKSDALE     CLOUDY    54  52  94 N26G32    29.96R
CLEVELAND      CLOUDY    67  59  76 NW15G22   29.89S
GREENWOOD      CLOUDY    70  56  61 VRB7      29.87F
6HR MIN TEMP:  57; 6HR MAX TEMP:  71;

GREENVILLE     CLOUDY    70  56  61 N10       29.88F
6HR MIN TEMP:  57; 6HR MAX TEMP:  71;

OLIVE BRANCH   LGT RAIN  48  48 100 N16G25    29.96R FOG
OXFORD         CLOUDY    68  52  56 NW14      29.89S
TUNICA         CLOUDY    50  46  87 N23G30    29.98R FOG
$$

MSZ003>006-009-014>017-022>024-029>033-037>039-261900-
NORTHEAST MISSISSIPPI

CITY           SKY/WX    TMP DP  RH WIND       PRES   REMARKS
COLUMBUS AFB   NOT AVBL
CORINTH        CLOUDY    68  54  60 NW21G28   29.85S
GOLDN TRIANGLE MOSUNNY   75  50  41 SW7       29.84F
STARKVILLE     FAIR      73  50  43 CALM      29.84S
TUPELO         CLOUDY    73  54  51 NW8       29.85S
6HR MIN TEMP:  57; 6HR MAX TEMP:  73;

$$

MSZ040-058-261900-
CENTRAL MISSISSIPPI

CITY           SKY/WX    TMP DP  RH WIND       PRES   REMARKS
JACKSON INTL   CLOUDY    76  57  51 S8        29.85F
6HR MIN TEMP:  62; 6HR MAX TEMP:  77;

JACKSON HAWKNS PTSUNNY   76  57  51 SW5       29.85F
6HR MIN TEMP:  58; 6HR MAX TEMP:  77;

MERIDIAN KEY   CLOUDY    70  62  76 S8        29.87F
6HR MIN TEMP:  56; 6HR MAX TEMP:  70; 6HR PCP:  0.02;

MERIDIAN NAS   PTSUNNY   71  61  70 SW6       29.86F
6HR MIN TEMP:  57; 6HR MAX TEMP:  71;

RAYMOND        MOCLDY    77  72  83 VRB5G14   29.84F
VICKSBURG      CLOUDY    72  59  63 CALM      29.86F
6HR MIN TEMP:  57; 6HR MAX TEMP:  75;

$$

MSZ059>079-261900-
SOUTH MISSISSIPPI

CITY           SKY/WX    TMP DP  RH WIND       PRES   REMARKS
BROOKHAVEN     MOCLDY    73  64  73 SE3       29.89S
HATTIESBURG    CLOUDY    74  66  76 S7        29.89F
6HR MIN TEMP:  58; 6HR MAX TEMP:  74;

MCCOMB         CLOUDY    73  63  70 S5        29.88F
6HR MIN TEMP:  61; 6HR MAX TEMP:  73;

NATCHEZ        CLOUDY    72  61  68 W9        29.88S
6HR MIN TEMP:  57; 6HR MAX TEMP:  73;

PINE BELT      CLOUDY    72  63  73 S8        29.90S
6HR MIN TEMP:  61; 6HR MAX TEMP:  72;

$$

MSZ080>082-261900-
COASTAL MISSISSIPPI

CITY           SKY/WX    TMP DP  RH WIND       PRES   REMARKS
BILOXI         LGT RAIN  66  64  94 E8        29.89F FOG
6HR MIN TEMP:  65; 6HR MAX TEMP:  69; 6HR PCP:  1.02;

PASCAGOULA     LGT RAIN  68  67  96 SE7       29.91F FOG
6HR MIN TEMP:  64; 6HR MAX TEMP:  68; 6HR PCP:  0.06;

GULFPORT       CLOUDY    69  66  90 E9        29.88F
6HR MIN TEMP:  66; 6HR MAX TEMP:  69; 6HR PCP:  1.31;

$$



USA.gov is the U.S. government's official web portal to all federal, state and local government web resources and services.